This is the latest recevied weather packets stored in our database for station/object AD5L. If no packets are shown the sender has not sent any weather packets the latest 10 day(s).
| Time | Temp. | Humidity | Pressure | Rain* | Wind** | Luminosity | Snow |
|---|---|---|---|---|---|---|---|
| 1777077217 | 30.56° C | 64% | 1005.2 hPa | 0 mm | - | - | - |
| 1777076629 | 30.56° C | 64% | 1005 hPa | 0 mm | - | - | - |
| 1777076020 | 31.11° C | 64% | 1005.1 hPa | 0 mm | - | - | - |
| 1777075404 | 31.11° C | 64% | 1005.1 hPa | 0 mm | - | - | - |
| 1777074823 | 31.11° C | 64% | 1005 hPa | 0 mm | - | - | - |
| 1777074205 | 31.67° C | 64% | 1005 hPa | 0 mm | - | - | - |
| 1777073617 | 31.67° C | 65% | 1005.1 hPa | 0 mm | - | - | - |
| 1777073006 | 32.22° C | 63% | 1005 hPa | 0 mm | - | - | - |
| 1777072416 | 32.22° C | 63% | 1004.9 hPa | 0 mm | - | - | - |
| 1777071804 | 32.78° C | 61% | 1004.9 hPa | 0 mm | - | - | - |
| 1777071214 | 33.33° C | 60% | 1005 hPa | 0 mm | - | - | - |
| 1777070604 | 33.89° C | 58% | 1005 hPa | 0 mm | - | - | - |
| 1777070013 | 34.44° C | 50% | 1004.8 hPa | 0 mm | - | - | - |
| 1777069421 | 33.89° C | 51% | 1004.8 hPa | 0 mm | - | - | - |
| 1777068809 | 33.33° C | 56% | 1004.8 hPa | 0 mm | - | - | - |
| 1777068220 | 33.89° C | 55% | 1004.8 hPa | 0 mm | - | - | - |
| 1777067610 | 33.33° C | 56% | 1004.9 hPa | 0 mm | - | - | - |
| 1777067015 | 32.78° C | 57% | 1005 hPa | 0 mm | - | - | - |
| 1777066403 | 32.78° C | 57% | 1005 hPa | 0 mm | - | - | - |
| 1777065812 | 33.33° C | 57% | 1005.1 hPa | 0 mm | - | - | - |
| 1777065203 | 33.89° C | 56% | 1005.4 hPa | 0 mm | - | - | - |
| 1777064614 | 33.89° C | 51% | 1005.5 hPa | 0 mm | - | - | - |
| 1777064022 | 33.89° C | 54% | 1005.5 hPa | 0 mm | - | - | - |
| 1777063408 | 33.89° C | 56% | 1005.8 hPa | 0 mm | - | - | - |
| 1777062817 | 33.33° C | 53% | 1005.9 hPa | 0 mm | - | - | - |
* Rain latest hour (hover to see other rain measurements)
** Current wind speed in m/s (hover to see current wind gust speed)